Wetbulb
68.36 70.60 72.59 73.29 74.00 74.44 73.78 73.42 73.41 73.82 74.12 74.51 74.39 74.33 74.58 74.85 74.79 74.74 74.84 74.91 74.57 74.43 73.66 73.37 73.52 72.83 72.65 72.73 71.87 71.60 71.94 71.56 71.22 71.33 71.38 70.97 71.22 71.18 70.77 70.62 72.19 70.79 71.40
69.99 70.81 72.19 73.01 73.96 74.33 73.98 73.59 73.56 74.12 74.33 74.44 74.27 74.49 74.49 74.56 74.68 74.84 74.72 74.56 74.28 74.10 73.33 73.19 72.84 72.59 73.48 72.81 72.13 71.75 71.33 71.25 70.87 70.83 70.96 70.09 70.52 70.07 70.81 72.15 71.48 70.13 71.33
69.77 71.22 72.55 72.38 73.65 74.11 73.98 73.95 74.07 74.48 74.57 74.50 74.39 74.33 74.33 74.51 74.63 74.41 74.39 74.14 73.98 73.70 72.93 72.61 72.46 73.13 73.13 72.31 72.28 71.68 71.20 71.20 71.26 71.08 70.84 67.38 67.37 69.48 70.05 71.12 71.41 71.30 70.44
69.90 70.99 72.36 72.28 72.97 73.93 73.56 73.69 74.07 74.49 74.37 74.26 74.18 74.33 74.28 74.11 74.29 74.29 74.07 73.83 73.33 73.55 72.66 72.50 72.54 72.94 72.51 72.13 71.89 71.67 71.17 70.83 70.93 71.52 71.87 68.82 67.65 69.33 68.90 69.39 70.25 70.66 70.93
70.05 70.50 72.72 72.18 72.46 73.44 73.69 73.57 73.88 73.91 73.78 73.71 73.92 74.04 73.91 73.83 73.71 73.75 73.46 73.48 73.83 73.51 72.56 72.36 72.66 72.31 71.59 71.39 71.18 70.77 70.32 70.15 69.97 70.02 69.78 70.32 70.01 70.58 70.12 69.34 68.50 68.53 68.92
70.25 70.92 71.51 71.58 72.39 73.37 73.63 73.69 73.53 73.32 72.84 72.95 73.30 73.65 73.94 73.78 73.48 73.46 73.18 73.36 73.53 73.41 72.60 72.13 71.79 71.15 70.37 70.39 70.24 69.80 69.17 69.07 68.31 68.19 68.52 68.99 70.55 71.40 70.75 70.74 70.04 69.70 68.81
70.80 72.82 72.27 70.95 71.96 72.76 73.58 73.38 73.12 72.58 72.38 72.62 73.01 72.97 73.29 73.60 73.30 72.78 72.90 73.13 73.07 72.98 72.79 72.23 71.15 70.30 69.89 69.62 69.51 69.23 68.85 68.74 69.49 68.05 67.99 69.63 70.13 71.01 70.69 70.32 70.07 69.38 69.55
71.63 72.94 71.43 71.98 71.90 72.10 72.56 72.32 71.82 71.73 72.02 72.13 72.34 72.51 72.95 72.87 72.55 72.34 72.45 72.73 72.43 72.11 71.87 71.47 70.34 70.35 70.05 69.78 69.23 68.80 68.16 67.97 69.97 68.84 69.04 70.09 69.35 69.37 68.65 68.63 69.67 69.70 69.42
73.13 73.07 71.42 72.05 72.44 71.27 70.93 70.58 70.46 71.04 71.35 71.64 71.68 71.81 71.96 71.67 71.63 72.15 72.17 72.13 71.93 71.51 71.54 70.85 70.25 70.26 70.23 69.56 68.59 67.73 66.87 67.78 69.30 69.43 69.42 70.19 71.00 71.11 70.16 68.67 68.37 68.39 68.84
73.56 73.38 72.44 72.03 72.18 72.76 72.99 70.24 70.13 70.41 70.73 70.94 71.19 71.17 70.72 70.66 71.41 71.63 71.36 71.46 71.43 71.08 70.92 70.66 70.08 70.12 70.01 69.34 68.18 67.03 66.65 66.92 69.62 71.36 71.38 70.28 71.26 71.13 71.38 70.35 69.42 68.73 68.51
72.65 73.37 73.41 72.44 72.06 72.55 72.46 72.16 70.79 70.77 70.72 70.68 71.25 70.77 69.75 70.72 71.65 72.03 70.54 70.40 70.64 69.93 69.71 69.95 69.56 69.31 68.99 68.59 67.81 66.95 66.42 69.72 71.28 71.14 71.55 68.83 70.83 70.80 71.45 72.01 71.32 70.47 69.79
70.91 72.50 73.39 73.09 72.44 72.62 71.80 72.66 72.35 72.39 72.43 72.21 71.71 71.99 70.91 70.58 70.92 70.61 69.89 69.74 69.73 69.17 69.03 68.97 68.75 68.52 67.81 70.20 69.18 66.67 68.21 70.39 71.39 71.14 71.69 69.36 70.48 70.73 71.18 72.27 72.15 71.46 70.77
70.34 72.08 72.74 73.31 73.47 72.86 71.99 72.11 70.99 71.24 71.27 71.94 72.33 72.39 71.19 70.74 70.76 70.66 70.83 70.95 70.18 68.72 69.29 68.81 69.02 69.38 70.08 69.79 69.11 69.28 69.05 70.38 71.05 70.90 70.25 68.28 69.09 69.93 71.30 71.99 72.47 72.23 71.27
68.67 70.79 72.29 73.13 73.39 73.41 72.39 71.71 71.36 70.70 70.91 70.68 71.66 72.86 72.28 70.40 70.65 70.42 70.25 70.00 69.08 68.33 68.32 69.28 69.16 69.91 69.96 69.93 70.01 69.88 70.02 70.45 70.54 70.78 71.36 67.57 68.29 69.72 70.74 71.80 72.47 72.61 72.00
68.52 69.23 71.36 72.64 73.11 73.22 73.27 71.64 71.39 71.21 70.52 70.64 71.33 72.18 71.96 70.99 71.49 70.52 70.08 69.68 68.88 68.68 67.99 68.60 68.85 68.89 69.05 69.10 69.72 69.94 69.88 70.60 70.92 70.74 71.32 66.80 67.26 68.67 70.11 71.35 72.54 73.09 72.84
70.06 69.35 70.95 71.78 72.91 73.28 73.02 74.21 71.76 72.02 71.87 70.80 70.47 71.25 72.46 71.75 72.04 70.27 70.05 69.56 69.13 68.93 68.71 68.50 68.61 68.00 68.34 69.22 69.48 69.80 69.39 69.54 69.64 71.17 70.76 70.92 65.50 66.82 68.56 70.38 72.08 73.10 73.42
69.64 70.27 70.48 71.80 72.84 73.00 73.19 73.02 72.32 71.87 71.62 70.84 70.43 73.16 72.40 72.01 73.02 72.23 69.94 69.54 69.39 70.45 71.56 70.60 71.04 69.36 68.37 69.03 69.11 69.54 69.16 69.88 68.73 69.50 69.43 70.54 69.39 64.23 65.52 67.61 69.18 70.55 71.78
64.03 69.33 70.24 70.21 71.65 72.37 72.75 72.77 72.39 72.02 71.88 71.25 71.02 70.98 72.48 71.53 72.90 72.47 70.25 69.75 69.78 69.81 69.12 69.28 68.92 68.06 67.91 68.17 68.67 68.19 68.61 69.28 69.90 70.16 68.89 69.57 69.03 69.06 66.17 64.80 66.29 67.97 69.05
62.06 64.62 68.51 70.40 70.56 71.19 72.28 72.76 72.84 73.63 72.03 71.65 71.31 70.97 72.38 71.44 71.09 72.28 70.46 70.44 71.61 69.32 69.58 69.25 69.15 69.08 67.33 67.40 67.21 68.33 68.88 68.45 69.17 68.17 69.27 70.14 70.77 69.85 69.30 65.99 63.76 64.54 66.23
61.56 62.65 63.67 65.73 69.67 70.89 70.96 72.01 71.67 71.47 71.47 71.55 71.32 71.01 72.79 71.06 71.75 72.05 71.20 71.64 70.89 69.00 68.78 68.38 68.89 68.99 68.22 67.58 65.55 65.67 68.20 68.31 68.87 68.87 68.60 68.62 69.03 70.66 71.18 70.80 70.50 66.98 62.36
59.80 60.81 61.18 62.32 64.47 64.44 68.85 68.69 70.13 69.34 70.10 70.14 70.70 72.69 72.70 72.43 72.18 71.87 71.00 71.13 71.13 69.39 69.19 70.10 69.47 68.41 67.78 68.72 66.72 66.47 67.07 68.78 68.85 68.05 68.61 68.64 68.72 69.34 69.78 69.71 69.88 69.65 69.62
57.13 58.35 59.68 60.31 61.56 62.93 64.26 66.79 68.71 69.22 70.40 70.42 70.85 71.52 72.25 72.76 72.72 71.84 71.39 70.70 70.64 69.33 69.93 70.17 70.09 67.90 67.77 68.66 65.68 65.00 62.54 65.18 67.34 68.31 69.11 69.16 70.13 70.48 69.93 70.89 70.70 71.36 72.05
55.50 56.06 57.04 57.63 58.76 60.23 60.62 63.97 64.97 70.32 70.52 69.86 69.54 69.27 70.55 71.83 72.53 72.37 71.91 71.19 70.58 70.35 69.00 69.88 69.95 69.29 66.44 68.03 68.87 64.98 61.02 60.45 64.27 68.06 69.82 70.41 71.40 71.08 70.99 71.05 71.58 72.06 72.33
55.24 56.23 56.24 55.37 55.02 56.94 58.17 57.70 57.32 55.97 63.97 68.96 70.04 69.83 70.23 71.72 71.80 72.31 72.41 72.12 71.19 70.51 69.45 69.82 70.07 69.56 68.97 66.01 68.10 67.65 67.92 67.23 63.36 62.44 68.11 70.72 71.63 70.97 72.12 71.93 71.53 72.18 71.93
54.27 54.76 55.42 56.10 54.50 53.16 53.85 54.69 54.66 51.99 53.99 62.35 70.32 70.85 71.25 71.31 72.21 71.68 72.16 72.30 71.79 71.14 70.94 69.93 69.35 69.48 69.01 67.75 66.62 67.10 67.79 67.98 68.08 65.10 62.74 64.63 68.92 70.30 70.84 71.19 70.81 71.51 72.05
54.30 53.74 53.22 52.97 53.66 53.70 52.05 51.51 50.91 51.37 50.76 51.93 52.60 61.01 67.81 69.55 70.51 71.26 71.50 71.68 71.83 71.69 71.36 71.10 70.73 70.05 69.68 68.99 68.58 67.79 66.67 66.72 65.82 65.67 64.64 65.46 65.76 67.46 69.54 71.66 72.78 72.28 72.52
MSLP
1008.37 1010.70 1011.99 1012.53 1013.02 1013.38 1013.71 1014.12 1014.47 1014.79 1015.03 1015.19 1015.39 1015.59 1015.81 1015.79 1015.87 1016.10 1016.33 1016.46 1016.58 1016.67 1016.86 1017.04 1017.17 1017.25 1017.39 1017.47 1017.62 1017.70 1017.87 1017.98 1018.06 1018.17 1018.25 1018.45 1018.53 1018.68 1018.84 1018.87 1018.76 1018.96 1019.53
1008.92 1010.96 1012.34 1012.75 1013.24 1013.64 1013.98 1014.39 1014.78 1015.03 1015.29 1015.61 1015.74 1015.99 1016.15 1016.28 1016.34 1016.46 1016.59 1016.73 1016.85 1017.00 1017.13 1017.26 1017.39 1017.58 1017.74 1017.92 1018.00 1018.18 1018.35 1018.37 1018.37 1018.51 1018.56 1018.80 1018.93 1019.13 1019.25 1019.21 1018.94 1019.67 1019.79
1009.57 1011.20 1012.36 1013.06 1013.53 1013.86 1014.23 1014.56 1014.96 1015.31 1015.54 1015.86 1016.20 1016.36 1016.49 1016.60 1016.70 1016.80 1016.94 1017.04 1017.10 1017.34 1017.47 1017.58 1017.74 1017.94 1018.18 1018.37 1018.47 1018.58 1018.64 1018.60 1018.58 1018.47 1018.23 1018.06 1018.98 1019.52 1019.64 1019.76 1019.93 1020.03 1020.10
1009.95 1011.41 1012.18 1013.42 1013.83 1014.14 1014.46 1014.74 1015.10 1015.50 1015.88 1016.13 1016.47 1016.67 1016.80 1016.95 1017.03 1017.08 1017.21 1017.39 1017.48 1017.65 1017.77 1017.89 1018.06 1018.33 1018.55 1018.67 1018.81 1018.89 1018.89 1018.67 1018.57 1018.53 1018.04 1017.90 1018.78 1019.87 1020.04 1020.16 1020.19 1020.27 1020.36
1010.14 1011.30 1012.47 1013.54 1014.08 1014.41 1014.65 1014.94 1015.26 1015.68 1016.04 1016.39 1016.68 1016.87 1017.02 1017.17 1017.32 1017.49 1017.56 1017.71 1017.81 1017.95 1018.07 1018.21 1018.42 1018.68 1018.87 1019.01 1019.10 1019.22 1019.20 1018.88 1018.59 1018.42 1017.37 1017.93 1018.57 1019.94 1020.14 1020.27 1020.40 1020.55 1020.61
1010.16 1011.09 1013.31 1013.83 1014.30 1014.68 1014.89 1015.27 1015.39 1015.81 1016.24 1016.55 1016.87 1017.09 1017.26 1017.39 1017.57 1017.66 1017.83 1017.95 1018.07 1018.21 1018.32 1018.51 1018.75 1018.93 1019.04 1019.18 1019.31 1019.40 1019.24 1018.94 1018.85 1017.26 1017.87 1018.36 1018.53 1019.93 1020.23 1020.38 1020.46 1020.62 1020.70
1010.55 1011.44 1013.26 1014.29 1014.60 1014.98 1015.18 1015.44 1015.82 1016.01 1016.39 1016.74 1017.00 1017.26 1017.46 1017.65 1017.80 1017.90 1017.97 1018.18 1018.37 1018.51 1018.64 1018.81 1019.02 1019.21 1019.33 1019.49 1019.64 1019.65 1019.49 1019.31 1018.70 1017.29 1018.09 1018.31 1019.49 1020.10 1020.32 1020.51 1020.63 1020.73 1020.82
1010.83 1011.88 1013.36 1014.58 1015.06 1015.31 1015.60 1015.72 1016.02 1016.37 1016.62 1016.87 1017.15 1017.43 1017.61 1017.81 1018.03 1018.18 1018.27 1018.37 1018.55 1018.75 1018.99 1019.18 1019.41 1019.54 1019.63 1019.75 1019.84 1019.81 1019.63 1019.23 1018.06 1017.42 1017.64 1018.16 1019.69 1020.04 1020.23 1020.43 1020.63 1020.78 1020.89
1010.99 1012.03 1013.43 1014.30 1015.11 1015.77 1016.02 1016.26 1016.40 1016.61 1016.90 1017.16 1017.39 1017.58 1017.84 1018.05 1018.23 1018.40 1018.57 1018.68 1018.79 1019.00 1019.21 1019.41 1019.57 1019.68 1019.78 1019.88 1019.91 1019.95 1019.80 1019.31 1018.62 1017.37 1017.74 1018.08 1019.59 1019.89 1020.15 1020.39 1020.62 1020.79 1020.92
1011.57 1012.45 1013.33 1014.00 1014.76 1015.37 1016.01 1016.71 1016.88 1017.03 1017.21 1017.40 1017.66 1017.87 1018.06 1018.35 1018.56 1018.66 1018.82 1018.94 1019.05 1019.18 1019.37 1019.55 1019.75 1019.87 1019.92 1020.01 1020.03 1020.05 1019.95 1019.48 1018.44 1017.28 1017.67 1018.50 1019.32 1019.76 1020.05 1020.28 1020.45 1020.61 1020.74
1011.84 1012.54 1013.21 1013.80 1014.34 1014.94 1015.45 1016.40 1017.19 1017.44 1017.61 1017.78 1017.90 1018.13 1018.35 1017.99 1018.33 1018.63 1018.60 1018.88 1019.25 1019.40 1019.58 1019.70 1019.84 1020.00 1020.08 1020.09 1020.06 1020.03 1020.00 1018.75 1017.33 1017.30 1017.01 1018.53 1019.16 1019.54 1019.81 1020.02 1020.23 1020.40 1020.54
1011.40 1012.11 1012.86 1013.49 1014.09 1014.59 1014.69 1015.60 1016.56 1016.84 1017.23 1017.45 1017.53 1017.85 1017.73 1017.42 1017.62 1017.65 1018.18 1018.98 1019.31 1019.51 1019.65 1019.80 1019.97 1020.08 1020.15 1019.04 1019.19 1019.80 1019.25 1018.17 1017.68 1017.18 1017.28 1018.42 1018.96 1019.31 1019.56 1019.79 1019.97 1020.16 1020.31
1010.69 1011.68 1012.41 1013.13 1013.47 1014.05 1014.01 1014.82 1015.65 1015.91 1016.39 1016.76 1016.91 1017.26 1017.23 1016.94 1017.26 1017.43 1017.76 1018.60 1018.95 1019.49 1019.26 1019.64 1019.77 1019.64 1019.12 1018.56 1017.65 1018.20 1018.11 1017.90 1017.56 1016.98 1017.64 1018.10 1018.72 1019.11 1019.30 1019.46 1019.66 1019.83 1019.96
1010.05 1011.12 1012.09 1012.80 1013.45 1013.70 1013.58 1014.11 1014.78 1015.05 1015.59 1015.83 1016.15 1016.64 1016.82 1016.59 1016.71 1016.92 1016.85 1017.57 1018.15 1018.32 1018.39 1018.47 1018.47 1018.66 1018.58 1018.33 1017.88 1017.56 1017.77 1017.62 1017.20 1016.83 1017.17 1017.72 1018.28 1018.74 1018.96 1019.09 1019.26 1019.41 1019.55
1009.64 1010.60 1011.83 1012.44 1013.12 1013.58 1013.76 1013.49 1014.00 1014.29 1014.92 1015.10 1015.45 1015.93 1016.35 1016.11 1016.26 1016.46 1016.42 1016.71 1017.17 1017.28 1017.75 1017.56 1017.71 1017.67 1017.88 1017.87 1017.86 1017.92 1017.83 1017.78 1017.66 1017.27 1016.80 1017.59 1017.82 1018.18 1018.53 1018.68 1018.74 1018.86 1019.01
1009.61 1010.30 1011.33 1012.17 1012.92 1013.26 1013.64 1013.55 1013.78 1013.88 1013.93 1014.66 1014.83 1015.16 1015.89 1015.76 1015.79 1016.03 1016.14 1016.14 1016.21 1016.53 1016.75 1017.03 1016.90 1017.07 1017.24 1017.23 1017.40 1017.57 1017.56 1017.44 1017.26 1017.20 1016.96 1016.79 1017.34 1017.48 1017.81 1018.12 1018.22 1018.26 1018.35
1010.23 1010.46 1011.14 1012.16 1012.66 1013.35 1013.60 1013.69 1013.57 1013.67 1014.10 1014.06 1014.31 1014.65 1015.11 1015.77 1015.59 1015.73 1015.79 1015.94 1015.88 1015.90 1016.25 1016.40 1016.60 1016.75 1016.77 1016.80 1016.83 1016.71 1017.03 1017.10 1016.93 1016.79 1016.68 1016.57 1016.42 1017.00 1016.98 1017.14 1017.38 1017.60 1017.71
1011.17 1010.51 1011.17 1011.78 1012.56 1013.34 1013.49 1013.46 1013.53 1013.49 1013.65 1013.91 1013.99 1014.19 1014.74 1015.10 1015.42 1015.54 1015.64 1015.54 1015.59 1015.65 1015.76 1016.14 1016.25 1016.32 1016.42 1016.37 1016.24 1016.17 1016.15 1016.16 1016.07 1016.10 1016.18 1016.07 1015.91 1015.67 1016.03 1016.38 1016.52 1016.62 1016.77
1013.22 1012.49 1011.48 1011.83 1012.53 1012.99 1013.35 1013.26 1013.22 1013.27 1013.39 1013.36 1013.61 1013.74 1014.02 1014.62 1014.93 1015.07 1015.09 1015.04 1015.23 1015.41 1015.28 1015.55 1015.78 1015.85 1015.75 1015.85 1015.69 1015.62 1015.52 1015.32 1015.12 1015.04 1015.08 1015.19 1015.31 1015.35 1015.13 1014.98 1015.58 1015.76 1015.79
1014.35 1013.89 1013.62 1013.30 1012.68 1012.95 1013.09 1012.97 1013.03 1012.88 1013.01 1013.15 1012.84 1012.93 1013.27 1013.74 1014.36 1014.48 1014.39 1014.56 1014.69 1014.83 1014.75 1014.94 1015.22 1015.16 1015.28 1015.07 1014.89 1014.59 1014.64 1014.63 1014.55 1014.42 1014.28 1014.22 1014.18 1014.25 1014.38 1014.46 1014.49 1014.93 1015.14
1015.32 1014.86 1014.82 1014.59 1014.42 1013.87 1012.84 1012.90 1012.61 1012.44 1012.48 1012.71 1012.80 1012.52 1012.56 1012.90 1013.35 1013.95 1013.89 1013.78 1014.01 1014.21 1014.20 1014.26 1014.52 1014.84 1014.57 1014.84 1014.73 1014.28 1014.02 1013.88 1013.91 1013.85 1013.63 1013.44 1013.27 1013.19 1013.30 1013.36 1013.54 1013.50 1013.34
1016.46 1016.26 1016.09 1015.92 1015.59 1015.22 1014.51 1013.54 1012.63 1012.26 1011.92 1011.88 1012.02 1012.31 1012.46 1012.48 1012.78 1013.06 1013.42 1013.29 1013.27 1013.35 1013.71 1013.96 1013.98 1014.05 1014.11 1014.37 1014.20 1014.18 1013.64 1013.25 1012.84 1012.79 1012.78 1012.64 1012.63 1012.48 1012.19 1012.17 1012.32 1012.43 1012.55
1017.24 1017.24 1017.03 1017.26 1017.09 1016.71 1016.22 1014.88 1013.88 1012.10 1011.80 1011.65 1011.32 1011.49 1011.88 1012.07 1011.93 1012.29 1012.48 1012.83 1012.73 1012.83 1012.68 1013.07 1013.50 1013.60 1013.46 1013.45 1013.70 1013.78 1013.12 1012.44 1011.92 1011.05 1011.29 1011.69 1011.80 1011.77 1011.63 1011.51 1011.47 1011.48 1011.70
1018.07 1018.27 1017.91 1018.13 1018.06 1017.68 1017.33 1016.81 1016.47 1015.66 1013.31 1010.96 1010.87 1010.90 1010.81 1010.86 1011.19 1011.49 1011.81 1012.03 1012.38 1012.14 1011.93 1011.92 1012.32 1012.58 1013.12 1012.84 1012.79 1012.84 1012.96 1012.79 1012.17 1010.96 1010.45 1010.61 1010.99 1011.24 1011.25 1011.24 1011.03 1010.98 1011.02
1018.82 1018.84 1018.91 1018.55 1018.74 1018.72 1018.32 1017.74 1017.36 1016.81 1016.23 1014.29 1011.34 1010.70 1010.51 1010.25 1010.09 1010.31 1010.74 1011.22 1011.46 1011.63 1011.42 1011.47 1011.49 1011.69 1011.70 1011.91 1011.79 1011.58 1011.78 1012.06 1012.37 1012.12 1010.92 1010.42 1010.27 1010.24 1010.30 1010.38 1010.62 1010.55 1010.47
1019.34 1019.50 1019.39 1019.11 1018.98 1019.17 1019.05 1018.65 1018.28 1018.02 1017.57 1016.49 1015.11 1013.05 1010.93 1009.96 1009.72 1009.72 1009.93 1010.27 1010.52 1010.75 1010.75 1010.69 1010.74 1010.75 1010.76 1010.79 1010.77 1010.74 1010.65 1010.66 1010.75 1010.78 1010.49 1010.19 1009.97 1009.71 1009.59 1009.41 1009.51 1009.71 1009.81
Wind_Speed
16 18 14 12 9 11 13 12 12 12 12 12 12 12 11 12 12 11 11 11 13 14 15 15 14 15 15 14 15 15 14 13 13 13 13 14 13 12 11 5 9 14 11
21 18 13 12 11 12 13 13 12 13 13 11 12 11 11 11 11 11 11 11 13 13 15 15 15 15 14 15 14 12 11 10 11 12 14 14 12 10 12 15 15 12 11
20 18 16 12 10 14 15 15 15 14 14 12 11 10 11 11 11 11 10 10 12 13 14 15 15 14 14 13 12 11 10 7 8 11 16 12 12 9 11 13 12 10 10
19 17 16 13 11 14 15 16 15 15 14 13 12 11 11 10 10 10 10 9 11 12 14 14 14 13 12 11 10 10 8 6 8 9 11 12 12 10 9 9 8 8 10
18 16 16 13 12 13 15 15 15 15 14 12 12 11 12 11 11 10 9 9 10 12 13 13 13 12 10 10 9 8 6 6 9 10 9 9 11 10 9 8 10 7 3
18 16 18 13 11 12 14 13 15 15 12 12 11 11 11 11 11 10 9 9 11 12 12 13 12 12 11 10 9 8 7 9 8 6 8 5 11 10 8 6 9 8 7
15 18 17 10 11 10 13 14 12 14 13 11 11 11 10 10 10 10 10 10 10 10 11 11 10 9 8 8 7 4 4 7 10 7 8 6 10 9 6 5 5 5 5
14 15 16 13 9 9 9 12 12 12 12 12 11 10 10 10 9 9 8 9 9 10 9 9 8 7 7 7 6 4 4 10 11 6 7 8 12 9 7 5 4 4 4
13 13 14 14 12 7 6 7 9 11 11 11 10 10 9 8 9 8 7 8 9 9 9 8 9 8 7 6 4 2 5 11 11 6 4 7 12 9 8 7 6 6 6
12 13 13 13 13 12 10 5 5 8 9 10 10 8 9 8 6 7 6 7 8 9 9 9 8 7 6 5 4 4 6 12 13 6 5 9 13 10 9 9 9 9 8
11 12 13 13 14 13 12 11 6 5 7 8 9 8 8 10 11 12 11 12 8 8 8 8 8 7 6 6 7 7 7 8 8 5 2 15 12 11 11 10 10 10 10
14 15 14 14 14 13 11 13 12 11 10 10 11 12 10 11 10 11 11 10 9 8 8 8 8 7 7 9 8 8 7 10 4 5 4 13 11 12 12 11 11 12 12
14 13 15 15 15 14 11 10 8 8 8 9 12 11 12 9 9 8 8 8 8 9 8 9 9 8 11 10 9 9 10 10 6 6 8 12 10 10 13 13 13 13 13
14 15 14 15 14 14 10 10 11 9 10 9 11 13 9 7 9 9 8 9 10 9 11 11 9 11 12 12 12 8 8 8 7 6 7 13 12 10 13 16 15 15 15
12 13 14 14 14 13 13 10 10 10 10 11 11 13 11 10 8 9 9 9 10 10 11 10 10 11 12 12 10 11 11 11 11 8 6 10 11 12 13 15 17 17 17
7 11 12 14 14 14 14 11 10 9 10 11 10 11 15 11 9 10 10 10 10 11 11 11 10 10 10 10 11 12 12 12 12 11 10 8 14 14 14 14 15 17 18
6 9 10 11 12 14 14 13 10 10 10 11 11 12 13 15 10 10 10 10 10 9 10 9 9 10 10 10 12 10 11 13 12 12 11 10 9 15 16 17 17 17 18
26 6 10 10 12 12 14 12 11 11 10 11 11 11 14 15 15 11 11 10 11 10 10 10 10 10 10 10 9 10 11 12 12 12 12 10 10 11 14 16 17 18 19
20 19 12 10 11 12 15 13 13 13 11 11 11 11 13 16 17 13 12 11 10 11 10 9 10 10 10 11 11 11 10 11 12 12 14 13 12 11 10 10 19 18 19
22 20 21 17 8 11 11 12 12 12 12 12 12 13 14 14 16 14 12 12 11 11 11 11 12 11 10 10 12 12 10 10 10 11 12 12 13 13 12 13 10 11 19
25 24 23 20 18 12 8 9 10 12 12 12 13 15 15 14 15 15 12 13 12 12 13 12 11 12 10 10 9 10 10 10 11 11 10 11 13 13 14 13 10 9 9
24 23 24 23 22 19 16 12 8 9 11 12 12 13 15 15 15 15 16 13 14 12 14 13 12 10 11 10 10 9 10 10 12 14 13 13 14 11 13 13 14 13 11
22 23 22 24 23 20 24 16 14 12 11 11 12 12 13 17 17 17 16 15 14 13 12 14 13 14 11 10 13 9 8 10 9 9 14 11 11 9 10 11 11 10 11
20 19 21 22 23 21 23 19 20 14 18 11 11 12 13 17 18 18 17 16 16 12 15 13 14 14 13 12 8 12 14 11 6 7 6 8 8 9 9 8 8 10 10
19 18 18 19 21 22 21 22 15 18 13 19 13 14 13 12 15 18 18 17 16 14 14 16 15 16 13 13 13 10 13 11 13 11 12 9 8 9 11 10 10 9 9
16 17 18 20 20 20 20 17 20 21 20 17 20 18 12 10 11 15 17 16 17 16 17 15 16 17 16 15 13 13 12 11 11 10 12 13 12 11 10 8 9 9 9
Wind_Direction
126 130 128 134 137 134 135 132 130 128 126 128 119 117 118 114 109 105 103 105 105 107 113 116 115 108 107 102 97 94 91 92 95 93 94 95 94 92 65 34 163 101 92
123 138 131 136 137 136 134 129 127 129 129 131 126 122 120 114 109 106 107 115 116 116 119 119 115 117 108 110 104 102 100 101 110 116 111 99 94 80 61 54 63 97 94
126 135 148 142 141 140 137 133 132 135 134 135 131 126 125 119 113 110 107 114 114 121 125 124 123 119 114 111 106 107 108 123 150 156 167 114 100 87 74 72 87 98 105
133 143 144 144 148 140 139 138 137 138 138 139 138 133 125 123 121 119 117 115 124 127 130 130 127 122 115 106 106 109 121 168 193 201 204 116 108 100 96 95 97 98 105
140 151 130 140 153 143 140 141 138 138 139 141 141 137 134 135 133 123 121 122 130 134 136 134 129 125 115 108 106 109 134 213 228 229 103 115 123 119 120 127 136 122 60
142 151 133 136 144 145 141 144 140 136 138 139 141 143 145 143 142 134 131 137 142 144 142 139 138 137 133 133 131 134 182 223 263 192 91 110 92 119 125 100 92 98 104
145 123 143 131 138 147 147 143 141 139 140 143 143 147 149 148 148 145 143 148 149 149 145 146 146 140 132 126 122 141 233 273 267 119 123 119 111 136 137 123 121 126 129
148 133 142 138 136 143 148 143 142 144 147 148 149 150 152 153 153 153 153 149 150 145 145 146 139 130 131 130 132 156 263 278 283 104 142 127 131 147 158 162 169 173 175
146 141 151 161 152 125 119 135 146 149 152 151 153 154 153 158 157 160 156 152 147 148 153 155 156 151 147 147 156 182 264 283 288 136 186 134 149 162 178 184 193 201 209
150 150 159 166 168 171 171 114 135 152 154 156 157 158 157 157 160 162 159 158 156 160 164 165 170 169 174 181 199 233 262 280 271 148 217 106 149 169 191 199 206 211 216
165 165 167 174 173 175 176 165 161 159 161 156 159 160 161 192 183 168 202 146 171 176 178 178 182 194 204 214 222 234 261 249 223 246 211 135 153 180 201 209 212 215 221
179 178 176 180 179 178 185 164 192 187 194 197 191 180 201 206 189 186 165 160 179 191 192 194 199 212 228 225 199 214 242 257 252 263 114 139 164 195 209 216 216 217 221
187 187 185 186 181 189 197 172 190 191 201 201 201 189 218 201 191 199 169 182 195 197 200 200 204 225 225 245 222 198 220 244 247 236 119 141 167 207 220 223 225 223 225
190 189 193 190 192 195 199 186 189 198 197 200 204 199 222 216 199 203 204 192 204 188 213 202 212 220 231 234 266 264 244 274 249 257 155 155 170 199 223 229 229 228 228
202 194 196 200 201 199 220 192 202 203 193 207 203 203 215 216 214 211 221 198 198 204 206 216 220 211 223 236 238 245 250 245 261 276 277 163 176 193 217 230 232 231 230
246 203 197 208 202 210 209 232 204 211 202 212 211 212 206 228 220 215 224 219 213 215 207 219 217 227 222 230 226 237 244 250 246 247 252 222 196 192 202 220 232 234 233
257 245 207 216 216 216 220 221 223 220 224 207 222 204 209 219 231 225 225 224 229 218 228 221 228 227 237 228 239 233 230 242 251 254 252 254 235 206 205 207 217 227 235
9 276 231 214 220 221 239 226 229 229 224 237 218 223 209 219 228 218 234 224 227 231 217 230 224 229 228 240 237 236 235 238 242 241 246 251 250 260 208 217 216 217 221
16 4 346 225 231 232 227 242 232 236 231 231 236 226 217 216 224 228 223 233 221 233 230 218 229 229 231 232 237 236 241 245 240 239 240 241 244 251 262 226 216 219 220
27 24 15 7 320 237 261 234 244 237 233 243 234 230 224 216 216 225 228 227 227 224 225 224 232 224 234 243 239 240 233 240 243 247 252 250 248 242 240 244 239 228 226
34 28 23 14 3 347 273 250 252 241 243 235 246 246 231 223 214 218 232 221 222 231 231 222 223 232 239 232 255 251 258 249 244 254 255 248 246 242 237 238 237 245 241
34 31 31 22 12 9 349 328 254 262 249 247 234 240 253 236 225 218 223 231 221 219 226 230 228 226 226 237 232 249 254 249 233 231 231 237 250 255 252 240 236 240 246
39 31 34 31 23 16 7 347 351 292 256 260 254 236 231 247 232 227 230 225 229 223 222 217 224 224 233 222 229 233 239 241 257 234 215 222 242 246 242 252 254 244 236
36 36 33 36 28 27 21 16 7 348 327 261 246 258 245 228 232 232 229 235 228 235 222 221 213 218 219 233 219 221 240 277 290 272 252 210 218 240 247 251 256 244 243
31 25 25 25 30 23 25 25 16 11 346 338 286 264 258 261 236 226 231 227 235 226 239 224 226 213 218 219 228 222 218 225 241 252 268 262 235 218 223 222 228 245 251
33 24 24 18 24 21 17 17 21 13 4 1 354 344 307 269 244 235 232 232 230 235 231 235 225 228 215 225 221 226 233 221 223 228 242 252 255 260 271 253 222 224 231